TimeCDT,TemperatureF,Dew PointF,Humidity,Sea Level PressureIn,VisibilityMPH,Wind Direction,Wind SpeedMPH,Gust SpeedMPH,PrecipitationIn,Events,Conditions,WindDirDegrees,DateUTC
12:53 AM,72.0,66.9,84,30.07,10.0,Calm,Calm,-,N/A,,Overcast,0,2013-08-10 05:53:00
1:53 AM,72.0,66.0,81,30.07,10.0,Calm,Calm,-,N/A,,Overcast,0,2013-08-10 06:53:00
2:53 AM,71.1,66.9,87,30.07,10.0,Calm,Calm,-,N/A,,Overcast,0,2013-08-10 07:53:00
3:53 AM,71.1,66.9,87,30.08,10.0,Calm,Calm,-,N/A,,Overcast,0,2013-08-10 08:53:00
4:53 AM,70.0,66.0,87,30.07,10.0,Calm,Calm,-,N/A,,Scattered Clouds,0,2013-08-10 09:53:00
5:53 AM,68.0,64.9,90,30.07,10.0,Calm,Calm,-,N/A,,Partly Cloudy,0,2013-08-10 10:53:00
6:53 AM,68.0,64.9,90,30.10,10.0,SSE,3.5,-,N/A,,Clear,160,2013-08-10 11:53:00
7:53 AM,73.9,64.9,73,30.11,10.0,Calm,Calm,-,N/A,,Clear,0,2013-08-10 12:53:00
8:53 AM,77.0,66.0,69,30.12,10.0,Variable,3.5,-,N/A,,Clear,0,2013-08-10 13:53:00
9:53 AM,79.0,66.0,64,30.13,10.0,North,5.8,-,N/A,,Clear,10,2013-08-10 14:53:00
10:53 AM,80.1,66.0,62,30.13,10.0,NE,3.5,-,N/A,,Clear,40,2013-08-10 15:53:00
11:35 AM,80.6,66.2,61,30.14,10.0,North,5.8,-,N/A,,Mostly Cloudy,350,2013-08-10 16:35:00
11:53 AM,82.0,66.9,60,30.13,10.0,NW,4.6,-,N/A,,Mostly Cloudy,320,2013-08-10 16:53:00
12:53 PM,82.9,64.9,54,30.12,10.0,NW,4.6,-,N/A,,Mostly Cloudy,310,2013-08-10 17:53:00
1:53 PM,86.0,64.9,49,30.10,10.0,North,9.2,-,N/A,,Clear,360,2013-08-10 18:53:00
2:53 PM,87.1,64.9,48,30.09,10.0,NNW,12.7,-,N/A,,Partly Cloudy,340,2013-08-10 19:53:00
3:53 PM,84.9,61.0,44,30.07,10.0,NNW,12.7,-,N/A,,Clear,340,2013-08-10 20:53:00
4:53 PM,84.9,57.0,38,30.07,10.0,North,10.4,-,N/A,,Clear,360,2013-08-10 21:53:00
5:53 PM,84.0,60.1,44,30.06,10.0,North,11.5,-,N/A,,Clear,360,2013-08-10 22:53:00
6:53 PM,81.0,59.0,47,30.06,10.0,North,10.4,-,N/A,,Clear,360,2013-08-10 23:53:00
7:53 PM,75.9,59.0,56,30.08,10.0,NNW,4.6,-,N/A,,Clear,340,2013-08-11 00:53:00
8:53 PM,71.1,60.1,68,30.10,10.0,North,3.5,-,N/A,,Clear,10,2013-08-11 01:53:00
9:53 PM,70.0,61.0,73,30.12,10.0,Calm,Calm,-,N/A,,Clear,0,2013-08-11 02:53:00
10:53 PM,68.0,61.0,78,30.12,10.0,Calm,Calm,-,N/A,,Clear,0,2013-08-11 03:53:00
11:53 PM,64.9,61.0,87,30.13,10.0,Calm,Calm,-,N/A,,Clear,0,2013-08-11 04:53:00